GFSGBSN_prec_cthk_153.txt.gz
RH
90 87 88 86 86 84 85 85 89 88 86 93 91 86 79 79 75 72 68 65 65 64 60 56 52 58 59 60 53 46 44 41 36 33 34 35 36 34 33 33 32 29 30 29 28 27 28
97 96 99 99 97 95 95 92 91 91 88 93 91 87 77 74 69 69 70 59 53 51 53 49 48 55 60 61 59 53 44 44 43 43 41 39 39 38 37 36 34 33 32 31 31 29 30
96 97 96 96 93 94 91 94 92 92 88 89 87 88 81 78 66 58 53 54 45 45 43 42 40 47 60 62 64 61 52 44 41 43 43 42 40 38 36 36 38 37 35 32 31 29 31
94 95 96 96 96 91 88 84 88 85 85 85 83 83 78 63 54 47 42 39 38 34 34 34 32 31 43 54 61 63 58 49 43 40 40 41 37 35 35 36 36 37 37 34 34 36 36
96 94 95 94 92 86 88 87 82 83 79 77 68 56 48 43 39 38 37 32 32 32 32 31 27 27 27 33 48 53 56 54 47 41 35 33 36 33 32 28 28 35 32 33 31 30 32
81 80 77 73 69 68 66 65 68 59 57 50 44 39 36 34 34 35 36 31 32 30 32 30 30 29 24 27 29 38 50 51 50 43 38 35 34 32 32 28 28 26 29 31 24 23 25
65 62 63 56 50 49 48 48 46 47 46 41 38 33 29 30 34 36 35 37 33 34 32 27 31 31 28 26 27 26 30 42 49 51 47 44 40 37 35 30 27 28 29 29 28 24 24
43 48 56 53 49 43 40 36 33 30 31 33 30 30 31 34 35 32 32 33 32 32 32 27 27 27 23 25 29 29 31 33 39 41 45 45 47 43 38 37 36 31 29 30 30 30 30
42 40 41 42 46 44 41 40 34 32 29 27 27 27 29 31 31 28 28 30 32 33 33 27 26 27 25 27 31 26 27 28 32 38 44 46 48 52 52 46 41 38 34 35 34 34 36
41 41 40 39 38 41 38 35 30 29 29 30 28 29 29 27 25 23 23 25 28 30 33 25 27 30 31 29 28 24 28 29 30 32 34 37 40 43 52 54 50 46 41 37 36 34 31
45 44 42 43 44 41 40 39 37 33 32 29 24 23 22 22 22 23 23 25 27 28 28 26 31 30 33 32 25 27 32 32 34 34 38 41 37 40 41 45 52 47 46 45 42 39 39
54 47 47 46 45 45 44 44 40 34 33 32 32 30 27 29 27 25 23 26 31 33 27 30 34 33 32 29 26 23 27 30 28 35 37 37 40 42 44 49 53 54 54 55 54 51 47
73 62 54 52 49 47 45 39 35 34 35 38 36 35 31 31 34 33 37 34 35 34 24 29 36 33 30 27 26 19 24 26 29 31 32 31 31 34 38 42 42 44 55 61 61 61 51
82 71 65 58 56 54 48 41 35 34 35 38 37 37 43 40 40 40 39 35 30 22 24 26 27 26 26 22 22 23 22 22 25 27 30 30 31 27 28 32 40 46 47 52 63 64 51
80 78 84 68 68 68 61 48 44 40 39 41 49 47 44 38 37 36 34 41 24 22 19 22 19 18 22 20 22 22 25 24 22 25 35 34 32 31 31 33 39 43 50 51 63 68 71
89 74 76 83 73 72 69 55 52 51 47 50 49 45 33 33 38 37 37 34 25 19 18 14 7 10 14 16 16 23 21 23 24 25 27 30 34 29 33 45 47 48 53 62 75 92 83
94 73 64 66 69 81 79 66 57 50 40 40 40 40 31 31 35 37 42 37 29 21 19 17 19 14 18 19 18 22 22 20 18 16 20 28 39 35 42 40 45 56 60 64 68 73 77
98 83 63 54 48 59 64 50 44 46 50 39 36 35 33 34 39 43 43 38 30 24 18 19 21 21 23 25 30 27 24 22 22 33 35 41 50 44 38 48 53 55 59 68 78 83 79
98 92 69 54 48 54 52 42 45 47 49 51 47 52 45 46 47 45 37 35 32 31 28 28 24 24 24 28 28 30 29 24 21 23 32 38 58 59 47 43 63 66 60 67 75 79 86
93 94 82 57 49 47 46 36 32 35 40 43 44 49 49 49 41 34 35 35 36 33 31 28 27 30 32 31 36 33 27 23 23 22 21 42 53 66 71 66 66 70 66 72 82 96 93
96 93 92 60 59 53 42 38 30 33 35 36 38 39 37 44 42 40 36 36 32 36 33 32 36 36 44 52 63 57 52 52 34 32 36 40 36 55 55 59 72 75 69 73 83 91 96
99 96 90 68 56 58 51 40 34 33 40 42 44 43 39 38 37 40 43 41 39 37 38 40 41 49 62 67 64 63 65 65 44 32 54 56 50 66 69 74 83 91 77 79 79 89 96
98 98 91 82 61 60 57 49 40 36 40 45 42 41 41 42 46 46 41 38 41 41 41 45 53 63 67 68 70 70 68 54 42 46 56 76 78 90 80 80 97 91 76 79 76 73 78
98 97 94 91 78 61 58 50 42 39 40 47 51 50 52 51 49 48 42 41 44 44 54 56 66 71 69 81 78 77 69 59 54 52 61 70 84 96 89 91 95 68 69 70 73 72 77
96 96 93 93 92 76 62 53 47 43 43 46 47 53 55 54 48 45 45 49 51 58 69 75 79 78 89 92 88 79 61 51 45 53 61 64 78 94 93 86 77 73 71 71 73 74 80
99 98 97 96 95 93 82 63 54 48 48 50 50 52 51 51 46 38 45 47 53 67 81 84 90 92 97 92 90 73 55 56 67 70 73 78 81 86 93 92 83 73 76 78 75 75 72
98 98 99 98 96 96 94 83 67 59 54 51 51 51 52 55 46 51 57 56 66 80 91 94 94 95 94 93 89 70 54 67 74 74 80 88 93 95 93 96 86 72 79 77 82 71 63
99 98 97 96 93 93 92 90 77 69 66 65 59 57 58 57 50 52 49 60 63 93 97 91 89 88 87 81 76 74 67 66 74 72 77 86 95 96 97 96 90 76 79 74 72 70 72
99 97 94 89 82 82 86 84 77 73 74 71 66 67 67 70 59 60 58 53 73 96 98 90 82 82 77 74 69 70 72 74 73 83 84 92 87 87 81 81 78 77 74 65 68 76 65

GFSGBSN_prec_cthk_156.txt.gz
RH
94 93 90 89 89 87 88 84 84 85 80 81 85 84 86 82 76 68 60 60 61 57 53 52 53 48 50 54 53 51 46 45 43 37 32 34 35 35 32 32 31 29 28 26 25 26 27
99 97 95 93 90 90 90 88 86 86 86 86 91 88 83 82 80 73 64 58 58 56 41 40 41 39 44 57 56 54 48 47 46 42 41 39 38 40 39 38 36 35 32 31 30 29 30
98 94 98 96 90 94 98 99 94 90 93 90 88 88 84 80 80 75 67 62 46 38 39 35 37 32 32 38 53 56 58 52 46 42 42 42 42 41 40 38 37 35 35 33 30 30 31
96 96 94 97 97 96 99 97 95 93 89 85 84 83 82 78 75 71 64 46 35 32 24 27 28 28 23 21 35 52 58 56 53 48 41 40 41 39 38 37 36 36 37 36 30 34 34
99 98 94 91 98 98 96 95 88 84 80 78 78 76 74 71 66 57 45 36 33 31 26 24 27 25 25 25 26 28 48 51 51 50 47 40 37 34 34 32 30 30 34 35 32 33 33
90 91 91 90 89 94 92 89 86 82 81 79 77 71 65 60 53 44 38 33 31 31 30 29 27 30 25 25 23 26 30 31 37 43 45 44 40 35 33 29 29 27 26 27 30 28 27
73 75 79 75 85 85 79 72 66 65 66 62 64 59 54 45 39 37 36 34 34 38 36 33 31 27 28 25 27 22 22 23 30 36 38 43 47 45 38 35 32 30 29 27 28 27 28
54 54 54 59 62 67 65 71 57 55 54 50 48 48 46 42 41 37 34 37 37 36 34 28 25 26 28 30 28 25 23 24 25 28 31 38 41 46 46 42 39 36 35 34 30 27 28
53 48 47 46 49 48 53 56 52 46 44 40 38 39 39 37 34 31 35 38 37 37 35 29 27 26 26 26 27 25 26 28 31 35 34 38 43 37 43 44 46 45 43 38 36 34 34
46 49 52 53 46 42 39 40 47 49 46 35 30 30 27 27 30 31 35 34 34 33 34 26 27 31 32 32 29 29 28 28 29 31 32 33 33 33 34 36 41 46 45 49 47 45 40
55 49 46 48 49 50 47 40 36 34 39 37 37 37 35 35 33 33 32 33 31 29 31 26 30 30 34 33 30 28 31 28 29 32 32 35 33 33 34 34 34 37 39 44 45 49 49
73 61 56 49 48 47 43 45 44 40 34 40 38 33 31 31 30 28 26 26 27 32 27 29 36 38 38 34 30 28 28 29 28 33 34 31 35 34 33 37 37 41 42 46 49 53 52
77 82 70 62 56 52 49 45 44 43 40 38 42 39 41 39 37 30 29 32 37 36 26 34 41 40 36 33 30 23 26 25 27 27 29 25 25 26 30 34 36 36 42 46 50 55 49
85 76 82 74 67 60 57 50 49 42 41 46 47 48 44 39 39 34 39 42 43 29 30 34 35 36 31 26 22 22 20 20 21 22 27 25 27 25 23 27 31 37 39 45 52 48 50
93 88 79 79 76 70 63 59 52 47 46 48 47 46 47 44 45 44 44 47 30 28 31 35 30 28 27 21 20 20 22 22 21 22 28 28 28 25 24 24 26 29 35 36 55 52 60
91 99 98 83 75 67 67 61 51 48 46 52 49 45 41 41 42 45 53 43 39 32 30 25 20 12 12 14 15 24 21 24 19 20 27 32 31 26 25 24 25 28 33 41 50 69 68
93 96 99 98 84 76 61 64 57 48 48 56 56 48 46 48 56 65 61 43 35 31 25 17 14 11 12 12 13 17 16 19 18 20 19 24 26 25 28 28 30 42 37 44 52 72 61
89 97 99 98 92 76 78 77 58 58 62 63 67 64 54 56 62 56 46 44 37 25 23 20 18 15 18 19 18 22 21 21 24 24 30 32 34 38 34 35 35 39 43 53 63 72 70
88 99 98 98 97 84 72 75 74 60 66 67 70 62 54 53 50 46 44 44 33 27 25 23 18 18 22 22 23 20 20 21 26 26 30 34 36 45 33 38 40 39 37 59 68 68 66
84 96 96 98 90 82 68 56 74 70 80 66 64 53 54 50 45 41 48 41 41 36 28 25 25 26 24 24 26 26 27 29 33 30 27 28 28 36 44 36 50 58 59 60 69 87 81
64 98 97 95 94 86 70 47 46 41 48 59 56 60 52 54 57 54 47 36 32 30 30 29 30 25 27 32 33 35 41 43 45 52 51 52 44 33 30 30 37 46 54 60 71 72 86
64 96 99 99 92 84 76 52 39 36 42 49 51 57 60 62 50 52 46 43 33 27 31 33 32 30 38 42 39 47 49 53 55 55 55 60 67 50 41 40 46 52 58 66 72 72 75
67 99 98 98 94 88 82 57 35 36 44 48 45 41 33 37 38 40 38 34 33 35 38 34 36 41 44 42 51 55 59 60 61 63 64 68 66 59 60 54 65 75 65 70 70 68 71
71 93 98 99 95 93 87 54 37 35 38 45 40 38 39 45 40 38 35 37 37 35 42 41 44 48 50 59 62 67 67 66 67 74 61 55 60 61 65 69 83 62 58 62 73 68 72
88 93 98 99 97 95 87 63 42 36 36 44 43 39 41 44 44 45 45 44 48 47 47 43 50 59 69 76 83 80 72 75 69 61 54 48 56 69 73 71 63 57 59 66 72 62 66
94 97 99 99 95 93 87 69 55 46 38 40 44 53 53 50 48 44 45 45 47 45 44 40 58 70 83 86 88 85 76 67 62 55 42 51 62 75 66 81 67 60 64 66 70 69 65
97 98 98 97 98 98 96 84 63 53 47 45 50 50 49 51 46 48 43 42 47 46 50 60 81 88 90 90 91 86 81 69 76 66 65 72 82 82 79 87 74 71 71 73 75 77 69
98 97 98 98 98 97 90 89 76 64 59 56 54 51 51 52 46 46 45 49 52 56 55 79 92 91 93 92 86 86 78 64 52 56 65 70 78 85 84 93 87 74 74 73 75 72 73
99 97 98 97 96 92 91 93 93 85 75 65 64 58 56 56 46 46 43 38 47 58 66 84 91 95 89 83 72 73 73 66 63 69 69 73 70 83 88 78 73 76 72 74 71 71 77

GFSGBSN_prec_cthk_162.txt.gz
RH
88 82 78 73 72 70 71 72 73 74 72 70 66 68 68 73 71 66 68 66 65 63 58 48 36 28 25 31 37 34 36 41 41 37 36 36 36 34 32 29 27 29 28 24 24 24 26
94 97 96 94 91 86 87 86 82 81 79 80 78 78 77 78 79 72 70 68 69 66 61 49 39 28 29 29 31 28 29 37 38 40 36 38 39 37 35 34 32 30 27 27 25 23 25
95 98 98 94 97 97 96 97 94 91 87 88 87 86 84 83 82 78 74 67 68 65 57 49 41 33 28 25 25 25 26 25 29 35 42 39 38 39 37 36 32 32 32 32 30 29 26
90 92 93 95 97 98 95 95 97 96 96 96 94 93 89 86 82 76 69 67 66 62 54 46 40 34 31 24 22 21 22 29 26 28 38 43 43 38 35 37 36 35 32 31 28 32 26
95 94 95 98 97 97 99 98 98 99 99 97 96 94 93 87 83 77 76 69 65 58 53 48 43 45 36 33 29 23 20 22 23 20 23 35 38 39 37 36 34 31 32 29 30 30 31
94 95 96 93 96 96 95 92 94 93 95 98 96 97 93 86 83 80 74 66 59 53 46 49 48 44 36 30 36 27 25 23 24 23 22 20 22 26 32 35 36 32 34 35 31 33 31
77 87 90 90 90 87 90 91 92 92 89 88 92 89 82 75 75 75 68 61 63 66 63 51 51 43 41 34 30 27 28 26 24 23 24 25 27 26 28 32 39 30 29 32 30 30 30
62 69 78 84 89 87 84 91 88 87 87 82 78 82 83 73 67 64 61 62 65 66 57 49 43 38 38 39 36 33 30 27 26 26 25 27 30 28 29 35 38 34 34 35 35 36 35
55 55 63 73 69 76 77 81 80 82 78 76 73 68 69 72 63 59 56 55 62 56 45 39 36 36 37 34 33 33 36 34 29 27 27 28 30 35 37 38 38 37 36 36 36 36 36
50 54 53 54 61 63 72 69 71 77 73 63 64 59 61 62 57 57 58 57 62 46 48 36 38 37 35 35 34 34 33 31 31 29 30 30 31 33 37 39 41 42 39 36 40 43 41
53 52 53 55 56 50 50 60 66 77 80 71 63 60 60 58 69 61 64 57 44 40 56 45 42 43 42 35 42 37 35 32 31 31 31 29 31 34 35 33 33 29 35 37 40 38 36
53 55 55 55 50 50 55 57 60 56 67 71 69 66 56 56 66 76 64 48 43 56 52 37 39 36 40 38 39 38 33 31 32 30 30 31 31 32 35 37 36 35 36 31 31 33 38
55 56 57 55 53 52 46 50 56 54 58 61 61 60 59 62 57 65 60 51 58 56 34 37 42 40 39 39 38 35 32 30 32 34 34 30 30 30 30 33 33 29 36 43 40 41 43
56 57 56 60 61 57 55 47 47 49 53 58 54 59 57 60 64 55 59 59 68 39 38 38 44 45 43 46 41 35 34 36 35 33 31 33 31 31 35 39 41 36 38 49 50 45 40
51 59 62 68 74 65 61 58 50 49 48 50 54 58 60 59 54 52 59 76 44 43 38 39 45 49 47 46 36 37 33 32 29 29 35 31 27 30 32 34 31 27 28 25 36 31 40
35 47 58 67 71 85 83 74 63 58 51 51 48 60 59 60 56 56 67 55 52 49 46 46 49 49 47 45 40 33 35 31 29 28 30 29 30 27 34 38 35 26 23 29 29 49 54
18 22 37 54 69 83 95 92 85 74 58 56 58 67 61 61 58 64 68 57 51 45 47 48 46 44 44 47 47 44 42 32 33 30 29 25 27 28 30 31 26 31 31 37 44 45 54
19 16 15 33 55 84 97 99 98 90 81 57 66 73 71 72 72 65 59 56 57 56 52 46 38 43 42 34 39 37 33 31 29 29 23 21 30 30 21 22 25 32 28 34 44 43 50
17 17 17 15 26 57 86 97 99 99 95 75 74 80 78 77 72 66 58 56 59 59 51 40 39 38 39 46 42 33 30 27 27 29 30 28 25 30 24 22 28 34 33 37 43 51 48
19 19 21 18 13 30 63 85 98 99 98 88 86 84 81 83 72 64 66 63 59 59 56 48 42 40 48 38 30 31 30 22 22 27 28 27 26 29 33 26 26 26 28 30 44 69 73
22 22 23 23 18 21 50 78 95 98 98 92 89 77 71 80 72 73 71 65 63 67 59 54 57 51 39 38 35 32 24 24 29 28 25 31 32 31 27 30 34 31 35 34 34 36 50
27 30 29 27 23 20 40 80 96 98 98 99 90 76 68 61 60 65 67 65 73 71 75 64 52 43 36 38 30 26 41 46 42 41 51 51 47 49 37 48 46 40 41 49 46 44 44
29 35 37 31 26 20 28 58 95 99 97 95 87 73 72 62 76 66 63 62 64 74 71 57 50 42 47 47 48 47 44 40 44 45 43 43 45 57 46 52 54 56 52 51 49 48 52
39 42 43 39 32 23 25 59 91 98 94 94 89 81 82 79 75 81 76 72 70 71 56 53 50 59 53 55 47 37 36 35 32 34 36 41 51 56 61 65 74 42 43 50 53 52 53
59 57 50 45 35 28 23 58 89 98 97 96 92 84 85 76 72 81 81 71 64 66 59 59 65 54 50 52 50 40 36 38 36 44 51 58 67 78 78 75 56 44 41 54 68 67 72
80 76 61 49 39 34 33 58 89 99 98 95 91 71 72 76 74 70 76 74 76 71 71 56 45 49 53 54 52 53 47 44 51 61 57 63 70 84 81 82 59 37 65 74 72 70 62
83 75 63 50 43 38 36 56 84 99 98 95 91 86 78 72 69 78 72 71 64 67 58 53 45 47 42 58 58 54 51 54 62 64 70 81 79 66 68 77 50 42 57 69 78 75 69
62 59 59 57 54 46 37 54 97 98 98 97 96 89 82 67 60 51 50 55 58 50 53 49 55 63 68 71 66 63 65 66 64 66 72 83 87 73 65 77 74 54 60 91 76 69 67
71 90 96 88 76 50 43 61 96 98 98 98 98 86 70 64 63 62 56 42 45 56 53 58 72 69 68 67 64 75 79 74 72 80 75 77 61 60 61 70 76 81 78 89 71 63 66

GFSGBSN_prec_cthk_165.txt.gz
RH
87 81 75 67 64 62 62 63 66 69 72 72 71 70 68 65 63 61 63 64 60 64 60 53 42 38 33 22 22 30 30 28 37 38 34 32 31 31 33 33 30 27 28 26 23 22 23
91 93 93 94 87 83 82 78 76 75 76 75 78 78 76 73 72 71 71 70 65 65 61 54 47 41 35 34 28 29 25 23 27 28 32 33 33 32 35 35 35 32 31 30 28 26 24
89 93 93 93 95 95 97 96 95 94 94 92 87 85 82 81 79 78 79 74 66 63 61 56 49 44 40 35 31 25 22 23 23 26 30 32 33 32 32 34 33 34 33 33 30 33 32
85 84 91 91 97 97 98 97 97 95 96 96 99 98 93 90 88 84 80 74 67 63 62 56 49 44 39 37 36 28 23 19 23 22 27 31 35 36 34 31 30 31 34 33 26 30 30
84 88 90 93 96 92 95 93 94 96 94 93 98 98 97 94 92 87 81 75 73 62 56 53 50 47 45 44 40 35 28 26 25 25 20 23 27 31 33 32 32 31 34 34 32 30 33
85 83 86 93 92 95 95 94 92 93 95 94 97 94 93 93 91 87 83 77 71 58 53 52 51 48 42 39 42 40 32 28 27 27 23 21 21 22 23 27 32 28 31 30 28 29 31
73 77 78 82 84 86 87 91 95 90 93 92 93 91 90 87 87 74 74 74 65 63 66 60 55 49 50 47 42 40 31 31 30 29 28 25 29 30 27 30 32 35 30 29 31 33 32
55 56 61 69 75 80 78 81 85 87 92 92 91 92 90 85 82 81 76 68 73 72 63 58 55 54 46 45 42 39 34 32 30 31 29 30 30 26 28 29 33 36 38 33 30 32 35
46 47 47 49 53 66 70 75 76 79 86 91 92 90 86 79 76 73 65 66 67 70 67 48 44 41 42 38 37 36 35 34 34 32 31 31 27 30 31 36 36 37 39 41 41 33 31
42 45 47 47 47 45 45 58 53 60 62 70 77 84 87 83 75 73 65 63 71 72 63 45 45 38 38 38 39 35 33 37 38 36 33 31 28 27 33 38 35 39 39 40 40 38 40
43 43 43 43 45 49 49 46 49 55 61 59 56 63 69 68 71 75 82 74 66 55 69 48 44 44 39 39 39 38 36 34 36 34 34 34 32 32 34 35 36 38 38 37 35 37 36
46 47 48 48 48 47 42 41 42 52 60 58 61 65 58 60 68 79 82 81 57 71 75 45 44 44 44 41 41 42 41 37 36 33 34 33 32 32 31 32 36 37 36 37 35 35 46
49 51 53 54 54 53 50 45 42 36 36 44 48 53 56 57 69 71 75 77 76 79 42 40 45 42 43 42 38 38 37 35 35 39 37 31 30 27 29 34 36 36 36 48 48 47 45
50 51 54 58 60 58 56 52 51 47 40 40 42 45 43 45 56 68 68 70 81 46 42 40 47 48 48 45 43 41 42 40 34 34 35 36 38 33 34 37 41 43 43 53 52 51 44
46 49 49 57 61 63 63 58 59 56 51 45 45 44 42 41 50 55 61 74 54 49 47 45 42 56 54 54 46 46 41 38 35 38 40 36 34 32 34 36 41 42 35 31 41 38 43
32 37 42 47 52 60 65 71 68 64 61 54 48 46 44 45 50 58 67 49 43 43 46 48 50 52 56 58 53 44 41 33 31 31 34 36 39 33 33 35 36 33 27 31 36 46 44
22 20 23 31 40 49 58 69 81 75 77 77 63 54 46 48 55 62 61 52 44 49 47 57 53 55 55 58 57 54 44 36 33 34 35 37 37 33 27 35 35 33 33 35 39 51 54
22 22 19 17 20 32 43 58 68 87 98 90 86 68 60 64 68 63 53 46 45 53 51 52 55 56 59 52 53 47 50 45 39 37 39 35 34 34 25 17 18 22 22 26 46 39 48
24 21 21 18 17 15 20 40 58 87 99 96 97 91 83 81 77 65 52 47 48 51 56 52 51 51 56 51 51 48 46 42 43 41 38 33 36 44 31 21 16 22 24 32 38 42 41
29 24 22 22 20 18 15 18 42 76 95 99 98 99 95 91 71 68 66 60 59 53 57 55 50 52 55 50 49 49 48 49 40 36 38 34 27 32 43 32 29 31 27 29 35 44 50
31 26 24 24 24 22 18 15 28 63 91 98 98 98 91 92 85 75 74 66 63 64 62 59 56 55 54 53 51 46 51 43 35 35 33 31 36 30 23 23 28 26 25 24 29 31 47
32 29 24 23 23 23 20 17 29 34 78 95 96 98 86 87 82 86 78 66 71 68 73 70 67 56 57 63 59 53 46 44 42 37 34 35 46 44 41 41 40 36 34 38 33 34 44
34 31 27 25 25 27 24 20 30 49 82 97 93 94 96 86 86 80 73 77 71 77 85 79 74 69 67 65 57 51 47 48 48 49 51 50 51 51 43 42 48 46 40 39 40 43 53
30 29 27 26 27 30 32 25 26 38 62 81 90 98 97 92 85 78 65 70 70 77 80 80 77 71 67 61 61 55 52 51 44 44 37 40 45 51 46 51 62 40 43 43 45 50 55
32 34 28 27 30 33 34 32 23 40 73 83 92 98 97 90 84 83 72 68 63 60 70 71 75 70 65 64 65 65 57 46 31 21 24 31 46 63 69 70 48 52 47 50 55 55 65
38 39 35 33 39 42 43 38 24 30 44 55 84 97 98 97 85 81 77 74 76 76 82 73 68 62 64 71 76 71 58 47 39 43 44 51 60 73 85 82 75 53 51 54 56 60 66
47 52 48 48 49 49 47 37 29 39 58 88 95 97 98 99 88 83 77 69 73 79 75 71 70 73 70 74 71 66 52 34 41 38 53 69 77 83 89 87 60 43 51 53 69 76 70
63 66 72 73 70 59 50 39 30 41 53 81 88 98 98 96 86 92 90 82 74 70 72 65 74 82 74 69 61 51 52 46 52 58 67 85 96 96 94 90 68 55 62 67 71 74 82
81 79 81 87 81 64 53 41 32 40 56 86 99 96 97 99 84 82 89 92 92 72 68 69 73 79 86 76 64 60 59 61 75 87 74 92 81 86 78 71 54 59 73 74 76 75 72

GFSGBSN_prec_cthk_171.txt.gz
RH
75 68 61 57 55 53 53 52 49 48 48 48 50 50 50 49 50 52 54 53 52 51 47 41 43 46 44 45 41 39 37 28 22 23 27 26 30 33 32 34 32 29 29 30 28 26 25
91 87 85 84 82 78 76 74 72 67 69 65 58 56 58 59 59 58 58 59 57 56 55 49 49 50 46 46 42 41 42 35 30 26 23 26 26 30 32 34 34 32 31 30 29 29 28
90 91 89 89 87 87 83 80 82 82 79 75 74 73 76 72 71 72 68 68 64 62 57 53 51 49 47 47 41 40 39 37 34 31 26 27 24 27 30 33 33 34 33 33 32 31 31
85 85 82 82 84 86 84 84 82 83 82 78 79 79 78 75 73 74 72 74 74 71 65 56 54 50 47 48 42 39 37 35 34 32 31 28 26 24 27 30 33 32 32 31 27 26 27
88 87 84 83 81 81 84 83 84 84 81 82 84 80 78 78 76 77 76 74 73 71 66 60 56 55 49 46 44 42 42 39 37 34 33 32 28 26 27 30 31 30 31 30 29 27 26
90 90 88 88 88 86 86 82 82 81 81 80 79 78 80 79 80 78 76 73 71 67 65 64 60 58 50 49 50 46 46 44 39 35 34 32 30 30 30 31 33 29 29 29 28 27 28
83 86 85 86 87 86 84 84 86 81 79 79 79 78 79 79 77 74 73 72 66 63 62 61 61 59 56 55 50 50 49 46 44 39 38 35 36 37 32 31 32 33 35 34 31 29 29
75 75 80 82 85 82 80 79 77 78 80 78 75 76 75 74 76 74 77 72 69 66 60 62 59 51 49 55 50 49 52 50 47 46 43 41 41 35 33 33 35 38 39 39 37 34 32
61 62 64 63 67 73 76 80 77 73 71 75 74 73 74 76 76 75 72 71 68 63 58 49 54 47 45 42 42 41 46 46 46 45 45 44 39 37 36 35 35 37 40 40 41 38 36
48 52 53 56 57 55 52 53 57 57 55 56 65 59 74 70 68 72 78 76 71 61 59 46 42 39 36 36 34 34 39 43 46 45 46 43 38 37 36 35 35 38 38 40 42 41 44
36 39 42 44 47 47 47 46 45 44 44 44 47 49 51 58 59 64 66 69 70 60 70 43 38 40 40 37 35 34 35 37 37 39 40 40 39 39 39 39 38 39 39 41 42 44 44
33 34 35 37 36 37 40 41 41 38 37 37 38 41 43 48 53 55 54 55 50 51 50 44 47 50 45 39 35 37 39 41 40 40 39 38 38 38 38 39 39 40 42 43 45 46 53
37 39 40 41 41 40 40 40 40 39 38 37 35 32 33 36 38 40 44 47 46 48 29 35 41 41 45 39 33 33 35 39 43 45 45 40 36 36 39 40 40 44 47 53 46 48 45
41 43 44 45 44 44 46 46 45 44 43 43 39 38 35 33 37 44 48 50 52 35 32 30 30 30 34 36 40 38 35 36 37 41 43 45 40 33 33 35 34 39 44 50 51 58 52
48 48 49 50 49 49 53 50 52 50 50 49 46 45 40 35 38 46 53 58 44 37 33 31 32 34 35 36 41 47 44 40 38 38 43 41 38 32 34 36 38 42 47 44 53 52 57
53 52 52 54 54 57 59 59 61 55 56 58 53 53 51 42 42 51 60 53 46 39 36 33 36 37 42 44 52 49 51 43 46 47 47 44 43 38 37 36 36 40 43 53 59 57 57
57 54 56 57 58 60 63 66 70 70 66 66 68 61 56 51 49 59 63 57 47 41 41 42 39 41 41 45 52 59 55 52 43 46 47 45 45 41 40 44 49 51 54 58 56 58 57
55 50 48 52 56 59 63 65 66 89 78 82 81 76 69 66 66 60 55 52 44 39 37 38 37 38 41 49 55 63 66 65 54 47 48 46 48 47 43 41 44 46 49 54 67 57 62
47 45 42 40 40 45 49 54 61 65 75 80 85 83 80 79 72 66 61 54 48 40 40 41 42 42 42 45 58 61 61 62 65 63 55 52 56 62 48 42 45 46 45 48 52 59 54
41 38 33 31 29 28 29 35 45 56 66 83 80 81 82 84 71 67 68 62 56 48 43 47 50 54 50 46 50 54 59 60 64 63 57 56 55 52 60 53 58 53 41 42 46 55 47
45 41 36 30 27 26 25 25 24 34 50 73 84 75 73 82 78 77 74 65 62 62 62 63 54 53 59 59 56 56 56 55 57 57 66 63 60 60 60 59 58 49 45 38 35 35 45
47 46 45 39 36 32 29 29 27 25 37 58 66 70 73 70 79 83 83 74 76 82 85 77 76 61 56 64 54 54 60 63 62 66 66 63 61 59 55 58 53 53 47 46 42 37 41
57 54 50 47 44 40 38 40 37 32 35 50 54 59 65 66 66 77 76 74 73 88 85 82 83 80 72 67 66 65 65 62 65 66 68 75 72 72 66 59 55 57 48 41 37 34 35
56 52 48 47 42 38 34 33 33 32 33 46 55 61 64 70 69 57 67 80 81 82 81 79 86 86 78 78 79 76 75 75 74 72 71 76 80 85 81 74 79 52 44 33 41 42 47
61 56 53 50 46 43 40 34 35 34 33 37 45 59 58 56 48 58 67 77 88 87 86 80 82 85 86 87 97 91 85 80 76 74 77 77 74 74 76 78 60 47 28 49 50 47 49
64 59 54 49 45 43 39 35 36 37 36 34 35 45 53 59 49 62 78 83 84 86 81 75 82 87 86 89 99 97 89 79 75 70 64 60 63 71 84 74 60 36 53 63 62 61 52
72 61 56 52 49 46 43 39 37 39 44 38 34 42 73 67 59 81 81 86 89 86 81 80 78 85 94 98 93 92 86 82 82 76 61 65 77 80 76 73 61 50 67 71 72 60 64
72 63 56 50 46 43 45 43 40 43 47 42 33 32 61 66 60 77 92 94 94 91 86 79 79 79 89 93 95 90 93 80 75 67 65 66 64 66 68 78 73 66 73 72 69 66 73
71 59 52 47 44 44 46 46 46 52 55 49 39 34 45 58 65 86 86 80 94 92 87 86 82 86 86 90 89 93 87 80 68 63 56 74 68 69 81 77 77 79 77 80 75 61 70